Main page
METAR-TAF:

METAR-TAF

Airports :

Buffalo Municipal Airport

Buffalo, Minnesota, United States

latitude: 45-09-32N, longitude: 093-50-35W, elevation: 968 ft

Current weather observation

The report was made 33 minutes ago, at 19:55 UTC
Wind 8 mph from the South/Southeast with gusts up to 15 mph, varying between Southeast and South/Southwest
Temperature 68°F
Humidity 40%
Pressure 29.98 in. Hg
Visibility: 10 miles
Broken clouds at a height of 12000 ft

METAR: KCFE 191955Z AUTO 16007G13KT 140V200 10SM BKN120 20/06 A2998 RMK AO2

Time: 15:28 (20:28 UTC)


TAF: missing

Weather observations and forecasts of more than 4000 airports (METAR and TAF reports).

The available stations are represented by yellow and red dots on the map.

Hover mouse over dot to see the name of the station.

Then click to see weather observations and forecasts.

To change the map : click on the green buttons with a black cross to zoom in, on the green button with a dash to zoom out, or on the green arrows for adjacent maps.


METAR-TAF: